Regional Weather Roundup
Issued by NWS

Home | Current Version | Previous Version | Graphics & Text | Print | Product List | Glossary Off
Versions: 1 2 3 4 5 6 7 8 9 10 11 12 13 14 15 16 17 18 19 20 21 22 23 24 25 26 27 28 29 30 31 32 33 34 35 36 37 38 39 40 41 42 43 44 45 46 47 48 49 50

000
ASUS43 KLSX 140657
RWRMO

WEATHER SUMMARY FOR MISSOURI
NATIONAL WEATHER SERVICE SPRINGFIELD MO
100 AM CST THU DEC 14 2017

NOTE: "FAIR" INDICATES FEW OR NO CLOUDS BELOW 12,000 FEET WITH NO
       SIGNIFICANT WEATHER AND/OR OBSTRUCTIONS TO VISIBILITY.
       CURRENT SKY AND/OR WEATHER CONDITIONS ARE NOT AVAILABLE FOR
       CHILLICOTHE AND FARMINGTON.

MOZ001>031-035>038-043-044-053-054-140800-
...NORTHERN AND WESTERN MISSOURI...

CITY           SKY/WX    TMP DP  RH WIND       PRES   REMARKS
KANSAS CTY INT CLOUDY    38  28  67 N8        29.95F
LEE`S SUMMIT   CLOUDY    39  28  64 N12       29.95F
ST JOSEPH      CLOUDY    38  27  64 N13       29.99R WCI  30
CHILLICOTHE      N/A     36  22  56 N5        29.97S

$$
MOZ066>068-077>081-088>096-101>105-140800-
...SOUTHWEST MISSOURI...

CITY           SKY/WX    TMP DP  RH WIND       PRES   REMARKS
SPRINGFIELD    CLEAR     38  28  67 N9        29.90S
JOPLIN         CLEAR     40  29  64 N10       29.95R

$$
MOZ032>034-039>042-045>050-055>058-069>072-140800-
...CENTRAL MISSOURI...

CITY           SKY/WX    TMP DP  RH WIND       PRES   REMARKS
COLUMBIA       NOT AVBL
JEFFERSON CITY CLOUDY    40  23  50 N8        29.95R
ROLLA          CLOUDY    39  26  59 N12       29.91R
SEDALIA        CLOUDY    40  27  59 N13       29.95F
WARRENSBURG    CLOUDY    36  28  75 NW6       29.95F

$$
MOZ051-052-059>065-140800-
...EAST CENTRAL MISSOURI...

CITY           SKY/WX    TMP DP  RH WIND       PRES   REMARKS
ST LOUIS INTL  CLOUDY    38  23  55 NW17G25   29.89S WCI  28

$$
MOZ072>076-082>087-097>100-106>115-140800-
...SOUTH CENTRAL AND SOUTHEAST MISSOURI...

CITY           SKY/WX    TMP DP  RH WIND       PRES   REMARKS
CAPE GIRARDEAU CLEAR     40  29  64 N13       29.86S
POPLAR BLUFF   CLEAR     41  28  60 NW3       29.85R
WEST PLAINS    CLEAR     41  27  57 N7G20     29.89R

$$


USA.gov is the U.S. government's official web portal to all federal, state and local government web resources and services.